CW8306 Weather Reports


Display with metric or nautical units.
time (UTC)temp
F
wind
direction
speed
MPH
gust
MPH
rain 1hr
in
rain 24hr
in
rain mn
in
humidity
%
barometer
mb
20260507090459 25 191 0.0 0.0 0.00 0.00 0.00 73 1013.2
20260507085956 25 191 0.0 0.0 0.00 0.00 0.00 73 1013.5
20260507085454 25 191 0.0 0.0 0.00 0.00 0.00 72 1013.1
20260507084950 26 191 0.0 0.0 0.00 0.00 0.00 72 1013.1
20260507084447 26 191 0.0 0.0 0.00 0.00 0.00 71 1013.2
20260507083944 27 191 0.0 0.0 0.00 0.00 0.00 71 1013.2
20260507083440 27 191 0.0 0.0 0.00 0.00 0.00 71 1013.5
20260507082937 27 188 1.0 1.0 0.00 0.00 0.00 71 1013.1
20260507082433 27 192 0.0 1.0 0.00 0.00 0.00 70 1013.2
20260507081930 27 192 0.0 1.0 0.00 0.00 0.00 70 1013.5
20260507081426 27 192 0.0 0.0 0.00 0.00 0.00 70 1013.4
20260507080923 27 192 0.0 0.0 0.00 0.00 0.00 69 1013.2
20260507080419 27 192 0.0 1.0 0.00 0.00 0.00 69 1013.1
20260507075914 28 192 0.0 1.0 0.00 0.00 0.00 69 1013.3
20260507075411 28 196 0.0 1.0 0.00 0.00 0.00 69 1013.3
20260507074908 28 187 1.0 1.0 0.00 0.00 0.00 68 1013.4
20260507074404 28 182 1.0 1.0 0.00 0.00 0.00 68 1013.5
20260507073902 28 193 0.0 1.0 0.00 0.00 0.00 67 1013.3
20260507073358 28 197 0.0 1.0 0.00 0.00 0.00 67 1013.4
20260507072855 28 194 0.0 1.0 0.00 0.00 0.00 67 1013.5
20260507072353 28 193 1.0 2.0 0.00 0.00 0.00 66 1013.5
20260507071850 28 189 1.0 2.0 0.00 0.00 0.00 67 1013.7
20260507071347 28 189 0.0 2.0 0.00 0.00 0.00 67 1013.5
20260507070843 29 192 1.0 1.0 0.00 0.00 0.00 66 1013.6
20260507070341 29 194 0.0 1.0 0.00 0.00 0.00 66 1013.8
20260507065838 29 190 0.0 1.0 0.00 0.00 0.00 65 1013.8
20260507065334 29 190 1.0 2.0 0.00 0.00 0.00 65 1013.8
20260507064831 29 199 0.0 1.0 0.00 0.00 0.00 66 1013.8
20260507064330 29 183 0.0 1.0 0.00 0.00 0.00 66 1013.8
20260507063827 29 196 0.0 1.0 0.00 0.00 0.00 65 1013.7
20260507063324 29 196 0.0 3.0 0.00 0.00 0.00 65 1014.0
20260507062821 29 179 1.0 1.0 0.00 0.00 0.00 66 1013.7
20260507062318 29 195 0.0 1.0 0.00 0.00 0.00 65 1013.9
20260507061816 29 177 0.0 2.0 0.00 0.00 0.00 65 1013.7
20260507061314 29 185 1.0 1.0 0.00 0.00 0.00 65 1013.8
20260507060812 29 186 0.0 1.0 0.00 0.00 0.00 65 1013.8
20260507060308 30 187 1.0 2.0 0.00 0.00 0.00 64 1013.8
20260507055805 30 176 1.0 1.0 0.00 0.00 0.00 65 1013.9
20260507055300 30 160 1.0 2.0 0.00 0.00 0.00 65 1014.0
20260507054756 30 178 1.0 2.0 0.00 0.00 0.00 65 1013.9
20260507054253 30 158 2.0 2.0 0.00 0.00 0.00 65 1013.9
20260507053750 30 183 1.0 2.0 0.00 0.00 0.00 65 1014.2
20260507053248 30 187 1.0 3.0 0.00 0.00 0.00 65 1014.1
20260507052747 30 192 1.0 2.0 0.00 0.00 0.00 65 1014.0
20260507052243 30 168 1.0 2.0 0.00 0.00 0.00 65 1014.1
20260507051741 30 162 0.0 2.0 0.00 0.00 0.00 65 1013.9
20260507051237 30 185 1.0 2.0 0.00 0.00 0.00 65 1014.0
20260507050734 30 213 2.0 2.0 0.00 0.00 0.00 65 1014.1
20260507050231 30 167 2.0 3.0 0.00 0.00 0.00 64 1014.1
20260507045728 31 194 0.0 1.0 0.00 0.00 0.00 64 1014.0
20260507045224 31 169 1.0 2.0 0.00 0.00 0.00 64 1014.2
20260507044722 31 184 0.0 2.0 0.00 0.00 0.00 64 1014.2
20260507044218 30 185 0.0 1.0 0.00 0.00 0.00 65 1014.3
20260507043714 31 194 0.0 0.0 0.00 0.00 0.00 64 1014.2
20260507043211 31 193 0.0 0.0 0.00 0.00 0.00 64 1014.1
20260507042708 31 46 1.0 2.0 0.00 0.00 0.00 64 1014.4
20260507042202 31 182 0.0 1.0 0.00 0.00 0.00 64 1014.3
20260507041700 31 153 2.0 3.0 0.00 0.00 0.00 64 1014.4
20260507041156 32 186 1.0 2.0 0.00 0.00 0.00 63 1014.4
20260507040653 32 104 1.0 2.0 0.00 0.00 0.00 63 1014.2
20260507040150 32 149 0.0 3.0 0.00 0.00 0.00 63 1014.5
20260507035646 32 195 0.0 1.0 0.00 0.00 0.00 63 1014.5
20260507035142 32 114 0.0 3.0 0.00 0.00 0.00 63 1014.6
20260507034639 32 97 2.0 3.0 0.00 0.00 0.00 62 1014.4
20260507034136 32 185 0.0 1.0 0.00 0.00 0.00 62 1014.6
20260507033635 32 200 0.0 2.0 0.00 0.00 0.00 62 1014.7
20260507033131 33 135 1.0 3.0 0.00 0.00 0.00 61 1014.7
20260507032629 33 116 2.0 5.0 0.00 0.00 0.00 61 1014.7
20260507032125 33 113 1.0 3.0 0.00 0.00 0.00 61 1014.8
20260507031622 33 181 2.0 3.0 0.00 0.00 0.00 60 1014.6
20260507031118 34 205 1.0 5.0 0.00 0.00 0.00 59 1014.6
20260507030615 34 112 2.0 5.0 0.00 0.00 0.00 59 1014.6
20260507030113 34 163 1.0 2.0 0.00 0.00 0.00 60 1014.4
20260507025610 34 86 2.0 3.0 0.00 0.00 0.00 59 1014.7
20260507025107 34 79 2.0 3.0 0.00 0.00 0.00 58 1014.5
20260507024605 34 194 2.0 3.0 0.00 0.00 0.00 58 1014.7
20260507024102 35 136 1.0 2.0 0.00 0.00 0.00 59 1014.6
20260507023557 35 177 2.0 3.0 0.00 0.00 0.00 58 1014.7
20260507023055 35 109 1.0 5.0 0.00 0.00 0.00 58 1014.6
20260507022551 35 128 2.0 3.0 0.00 0.00 0.00 58 1014.6
20260507022046 35 177 0.0 5.0 0.00 0.00 0.00 57 1014.6
20260507021543 35 159 2.0 3.0 0.00 0.00 0.00 57 1014.7
20260507021039 36 111 1.0 5.0 0.00 0.00 0.00 57 1014.7
20260507020538 36 141 2.0 3.0 0.00 0.00 0.00 58 1014.5
20260507020034 36 66 2.0 3.0 0.00 0.00 0.00 58 1014.6
20260507015532 36 124 1.0 6.0 0.00 0.00 0.00 57 1014.6
20260507015029 37 154 3.0 7.0 0.00 0.00 0.00 57 1014.5
20260507014526 37 198 2.0 5.0 0.00 0.00 0.00 57 1014.3
20260507014021 37 147 0.0 2.0 0.00 0.00 0.00 57 1014.3
20260507013518 38 97 3.0 6.0 0.00 0.00 0.00 56 1014.5
20260507013016 38 116 2.0 3.0 0.00 0.00 0.00 56 1014.5
20260507012513 39 147 1.0 2.0 0.00 0.00 0.00 56 1014.3
20260507012009 39 77 2.0 3.0 0.00 0.00 0.00 56 1014.5
20260507011506 39 196 2.0 5.0 0.00 0.00 0.00 55 1014.2
20260507011002 39 354 2.0 5.0 0.00 0.00 0.00 54 1014.3
20260507010456 39 147 2.0 6.0 0.00 0.00 0.00 54 1014.4
20260507005954 40 131 4.0 5.0 0.00 0.00 0.00 54 1014.3
20260507005451 41 80 2.0 7.0 0.00 0.00 0.00 52 1014.2
20260507004947 42 206 1.0 2.0 0.00 0.00 0.00 50 1014.3
20260507004444 42 227 1.0 3.0 0.00 0.00 0.00 50 1014.1
20260507003942 42 174 2.0 5.0 0.00 0.00 0.00 50 1014.2
20260507003437 42 193 2.0 3.0 0.00 0.00 0.00 48 1014.2
20260507002932 42 155 2.0 6.0 0.00 0.00 0.00 49 1014.1
20260507002428 43 211 3.0 5.0 0.00 0.00 0.00 49 1014.2
20260507001926 42 186 4.0 8.0 0.00 0.00 0.00 50 1014.0
20260507001422 43 17 3.0 6.0 0.00 0.00 0.00 49 1014.3
20260507000920 43 110 4.0 6.0 0.00 0.00 0.00 49 1014.3
20260507000415 43 350 3.0 7.0 0.00 0.00 0.00 49 1014.2
20260506235911 45 40 2.0 6.0 0.00 0.00 0.00 47 1014.3
20260506235409 46 337 1.0 3.0 0.00 0.00 0.00 40 1014.0
20260506234904 45 37 2.0 6.0 0.00 0.00 0.00 40 1014.2
20260506234402 45 249 2.0 5.0 0.00 0.00 0.00 41 1014.1
20260506233859 46 49 3.0 5.0 0.00 0.00 0.00 41 1014.2
20260506233355 45 212 1.0 6.0 0.00 0.00 0.00 39 1014.1
20260506232852 46 306 5.0 8.0 0.00 0.00 0.00 40 1014.2
20260506232348 46 7 2.0 6.0 0.00 0.00 0.00 39 1014.1
20260506231844 46 352 4.0 6.0 0.00 0.00 0.00 38 1014.2
20260506231342 46 353 2.0 7.0 0.00 0.00 0.00 39 1014.2
20260506230839 45 351 3.0 8.0 0.00 0.00 0.00 39 1014.2
20260506230336 46 306 3.0 8.0 0.00 0.00 0.00 39 1014.2
20260506225832 46 293 3.0 7.0 0.00 0.00 0.00 39 1014.3
20260506225330 46 229 3.0 6.0 0.00 0.00 0.00 39 1014.2
20260506224827 46 316 3.0 6.0 0.00 0.00 0.00 39 1014.2
20260506224324 46 216 0.0 5.0 0.00 0.00 0.00 39 1014.2
20260506223820 46 272 1.0 9.0 0.00 0.00 0.00 40 1014.3
20260506223315 46 239 2.0 8.0 0.00 0.00 0.00 40 1014.4
20260506222813 46 326 2.0 5.0 0.00 0.00 0.00 40 1014.4
20260506222308 46 253 3.0 6.0 0.00 0.00 0.00 39 1014.4
20260506221806 46 355 5.0 7.0 0.00 0.00 0.00 40 1014.6
20260506221304 47 355 4.0 5.0 0.00 0.00 0.00 39 1014.6
20260506220801 46 267 7.0 14.0 0.00 0.00 0.00 39 1014.5
20260506220255 46 234 2.0 6.0 0.00 0.00 0.00 40 1014.8
20260506215753 46 219 4.0 7.0 0.00 0.00 0.00 41 1014.8
20260506215248 46 338 4.0 9.0 0.00 0.00 0.00 40 1014.9
20260506214745 45 322 3.0 5.0 0.00 0.00 0.00 41 1014.7
20260506214242 44 336 4.0 7.0 0.00 0.00 0.00 42 1015.1
20260506213740 45 345 7.0 8.0 0.00 0.00 0.00 42 1015.0
20260506213231 45 251 2.0 5.0 0.00 0.00 0.00 42 1015.0
20260506212729 45 331 4.0 9.0 0.00 0.00 0.00 43 1015.1
20260506212224 45 341 3.0 6.0 0.00 0.00 0.00 43 1015.3
20260506211720 45 220 2.0 7.0 0.00 0.00 0.00 45 1015.1
20260506211216 45 193 5.0 7.0 0.00 0.00 0.00 44 1015.1
20260506210713 45 234 3.0 5.0 0.00 0.00 0.00 44 1015.2
20260506210210 45 325 4.0 8.0 0.00 0.00 0.00 45 1015.4
20260506205707 45 254 5.0 7.0 0.00 0.00 0.00 45 1015.4
20260506205202 44 13 3.0 6.0 0.00 0.00 0.00 47 1015.5
20260506204659 45 311 3.0 7.0 0.00 0.00 0.00 47 1015.3
20260506204156 44 97 3.0 8.0 0.00 0.00 0.00 48 1015.6
20260506203655 44 352 4.0 6.0 0.00 0.00 0.00 48 1015.4
20260506203152 43 73 2.0 3.0 0.00 0.00 0.00 49 1015.6
20260506202649 43 264 2.0 6.0 0.00 0.00 0.00 50 1015.7
20260506202145 44 310 2.0 5.0 0.00 0.00 0.00 49 1015.6
20260506201642 43 291 2.0 5.0 0.00 0.00 0.00 49 1015.7
20260506201138 43 21 5.0 9.0 0.00 0.00 0.00 50 1015.6
20260506200635 43 287 3.0 8.0 0.00 0.00 0.00 50 1015.8
20260506200132 44 276 3.0 7.0 0.00 0.00 0.00 49 1015.8
20260506195629 43 227 5.0 7.0 0.00 0.00 0.00 50 1015.8
20260506195125 43 280 2.0 7.0 0.00 0.00 0.00 49 1016.1
20260506194623 43 244 5.0 6.0 0.00 0.00 0.00 48 1015.8
20260506194119 43 241 4.0 7.0 0.00 0.00 0.00 48 1015.9
20260506193617 43 278 3.0 5.0 0.00 0.00 0.00 50 1015.8
20260506193114 42 246 3.0 7.0 0.00 0.00 0.00 51 1016.1
20260506192611 42 10 3.0 9.0 0.00 0.00 0.00 51 1015.9
20260506192106 41 243 1.0 7.0 0.00 0.00 0.00 52 1016.1
20260506191603 41 170 1.0 5.0 0.00 0.00 0.00 52 1016.3
20260506191059 41 283 2.0 5.0 0.00 0.00 0.00 51 1016.1
20260506190557 42 272 2.0 5.0 0.00 0.00 0.00 52 1016.5
20260506190053 41 269 1.0 3.0 0.00 0.00 0.00 51 1016.3
20260506185551 41 92 1.0 7.0 0.00 0.00 0.00 52 1016.1
20260506185047 41 63 3.0 3.0 0.00 0.00 0.00 52 1016.2
20260506184545 41 252 2.0 6.0 0.00 0.00 0.00 52 1016.2
20260506184042 41 73 2.0 3.0 0.00 0.00 0.00 52 1016.2
20260506183537 40 238 1.0 6.0 0.00 0.00 0.00 53 1016.5
20260506183034 41 12 4.0 7.0 0.00 0.00 0.00 52 1016.2
20260506182532 41 55 3.0 5.0 0.00 0.00 0.00 52 1016.2
20260506182029 41 258 2.0 6.0 0.00 0.00 0.00 51 1016.1
20260506181527 40 242 1.0 7.0 0.00 0.00 0.00 51 1016.3
20260506181023 41 250 2.0 5.0 0.00 0.00 0.00 53 1016.4
20260506180520 41 8 7.0 10.0 0.00 0.00 0.00 52 1016.2
20260506180017 41 24 3.0 8.0 0.00 0.00 0.00 53 1016.6
20260506175513 41 354 3.0 5.0 0.00 0.00 0.00 53 1016.5
20260506175009 40 233 3.0 8.0 0.00 0.00 0.00 52 1016.6
20260506174508 40 44 3.0 5.0 0.00 0.00 0.00 54 1016.4
20260506174004 40 4 4.0 7.0 0.00 0.00 0.00 53 1016.6
20260506173502 40 144 1.0 5.0 0.00 0.00 0.00 54 1016.5
20260506172958 40 294 3.0 7.0 0.00 0.00 0.00 54 1016.6
20260506172456 39 198 3.0 9.0 0.00 0.00 0.00 55 1016.7
20260506171952 40 5 5.0 8.0 0.00 0.00 0.00 53 1016.6
20260506171449 39 215 2.0 5.0 0.00 0.00 0.00 55 1016.8
20260506170947 39 226 1.0 3.0 0.00 0.00 0.00 54 1016.9
20260506170443 39 341 2.0 6.0 0.00 0.00 0.00 55 1016.7
20260506165936 39 299 5.0 6.0 0.00 0.00 0.00 55 1016.9
20260506165434 39 325 3.0 6.0 0.00 0.00 0.00 55 1017.0
20260506164924 39 14 3.0 5.0 0.00 0.00 0.00 57 1016.9
20260506164421 39 3 3.0 6.0 0.00 0.00 0.00 55 1016.9
20260506163919 39 343 2.0 5.0 0.00 0.00 0.00 57 1017.0
20260506163413 39 353 5.0 8.0 0.00 0.00 0.00 56 1017.3
20260506162908 39 224 2.0 8.0 0.00 0.00 0.00 57 1017.1
20260506162406 38 275 1.0 9.0 0.00 0.00 0.00 58 1017.2
20260506161858 38 270 2.0 6.0 0.00 0.00 0.00 60 1017.2
20260506161356 38 17 3.0 6.0 0.00 0.00 0.00 62 1017.2
20260506160853 37 331 5.0 7.0 0.00 0.00 0.00 63 1017.2
20260506160350 37 21 2.0 5.0 0.00 0.00 0.00 64 1017.3
20260506155848 38 5 5.0 6.0 0.00 0.00 0.00 65 1017.6
20260506155345 37 212 1.0 6.0 0.00 0.00 0.00 68 1017.2
20260506153502 35 1 3.0 6.0 0.00 0.00 0.00 73 1017.7
20260506153000 35 182 3.0 5.0 0.00 0.00 0.00 76 1017.5
20260506152456 35 98 1.0 3.0 0.00 0.00 0.00 78 1017.5
20260506151954 35 38 2.0 3.0 0.00 0.00 0.00 78 1017.6
20260506151452 35 8 3.0 6.0 0.00 0.00 0.00 78 1017.6
20260506150949 35 307 0.0 5.0 0.00 0.00 0.00 80 1017.6
20260506150445 35 351 2.0 5.0 0.00 0.00 0.00 80 1017.6
20260506145942 34 47 1.0 3.0 0.00 0.00 0.00 81 1017.5
20260506145438 33 2 2.0 3.0 0.00 0.00 0.00 81 1017.5
20260506144936 33 221 0.0 2.0 0.00 0.00 0.00 82 1017.6
20260506144432 33 235 1.0 3.0 0.00 0.00 0.00 82 1017.7
20260506143931 32 337 3.0 5.0 0.00 0.00 0.00 82 1017.5
20260506143428 33 10 3.0 5.0 0.00 0.00 0.00 83 1017.7
20260506142926 32 340 2.0 3.0 0.00 0.00 0.00 83 1017.7
20260506142424 32 210 1.0 1.0 0.00 0.00 0.00 84 1017.7
20260506141921 32 166 2.0 2.0 0.00 0.00 0.00 84 1017.9
20260506141419 32 308 1.0 3.0 0.00 0.00 0.00 85 1017.7
20260506140918 32 224 1.0 1.0 0.00 0.00 0.00 86 1017.9
20260506140414 32 218 0.0 2.0 0.00 0.00 0.00 86 1017.7
20260506135911 32 226 0.0 2.0 0.00 0.00 0.00 86 1017.8
20260506135408 32 208 0.0 1.0 0.00 0.00 0.00 86 1017.8
20260506134904 31 233 0.0 1.0 0.00 0.00 0.00 86 1017.7
20260506134400 31 238 1.0 2.0 0.00 0.00 0.00 86 1017.7
20260506133857 31 235 1.0 2.0 0.00 0.00 0.00 86 1017.9
20260506133354 31 206 1.0 2.0 0.00 0.00 0.00 86 1017.7
20260506132850 31 18 3.0 3.0 0.00 0.00 0.00 86 1017.5
20260506132348 31 270 1.0 3.0 0.00 0.00 0.00 86 1017.4
20260506131846 31 168 1.0 3.0 0.00 0.00 0.00 86 1017.5
20260506131342 31 193 1.0 3.0 0.00 0.00 0.00 86 1017.7
20260506130839 31 345 1.0 1.0 0.00 0.00 0.00 86 1017.4
20260506130335 31 222 0.0 2.0 0.00 0.00 0.00 86 1017.6
20260506125833 31 222 1.0 2.0 0.00 0.00 0.00 85 1017.3
20260506125332 31 358 3.0 3.0 0.00 0.00 0.00 85 1017.4
20260506124830 31 356 1.0 7.0 0.00 0.00 0.00 84 1017.5
20260506124326 31 222 2.0 5.0 0.00 0.00 0.00 82 1017.4
20260506123824 32 241 3.0 3.0 0.00 0.00 0.00 81 1017.6
20260506123322 32 247 1.0 2.0 0.00 0.00 0.00 79 1017.5
20260506122819 32 301 2.0 5.0 0.00 0.00 0.00 78 1017.5
20260506122316 32 168 1.0 5.0 0.00 0.00 0.00 80 1017.4
20260506121814 32 231 1.0 3.0 0.00 0.00 0.00 82 1017.6
20260506121311 32 219 1.0 2.0 0.00 0.00 0.00 83 1017.2
20260506120808 32 233 1.0 6.0 0.00 0.00 0.00 83 1017.5
20260506120306 32 273 1.0 3.0 0.00 0.00 0.00 83 1017.3
20260506115803 32 267 3.0 3.0 0.00 0.00 0.00 82 1017.2
20260506115306 32 265 1.0 1.0 0.00 0.00 0.00 82 1017.1
20260506114759 32 200 1.0 3.0 0.00 0.00 0.00 81 1017.1
20260506114256 32 230 1.0 3.0 0.00 0.00 0.00 80 1017.2
20260506113755 32 282 1.0 1.0 0.00 0.00 0.00 80 1016.9
20260506113252 32 301 1.0 2.0 0.00 0.00 0.00 80 1017.2
20260506112748 32 253 1.0 3.0 0.00 0.00 0.00 80 1017.1
20260506112246 31 356 1.0 2.0 0.00 0.00 0.00 80 1017.1
20260506111743 31 272 1.0 3.0 0.00 0.00 0.00 80 1017.1
20260506111241 32 272 1.0 5.0 0.00 0.00 0.00 81 1017.0
20260506110738 32 344 1.0 3.0 0.00 0.00 0.00 81 1016.8
20260506110236 32 330 1.0 1.0 0.00 0.00 0.00 82 1017.0
20260506105732 32 244 3.0 6.0 0.00 0.00 0.00 82 1017.1
20260506105229 31 217 1.0 2.0 0.00 0.00 0.00 82 1017.0
20260506104727 31 221 0.0 6.0 0.00 0.00 0.00 83 1016.9
20260506104224 31 261 2.0 3.0 0.00 0.00 0.00 84 1017.1
20260506103721 32 221 1.0 1.0 0.00 0.00 0.00 85 1016.9
20260506103218 32 293 1.0 5.0 0.00 0.00 0.00 84 1017.0
20260506102716 32 274 0.0 2.0 0.00 0.00 0.00 85 1017.2
20260506102214 31 229 0.0 2.0 0.00 0.00 0.00 85 1017.1
20260506101710 31 223 0.0 0.0 0.00 0.00 0.00 84 1016.9
20260506101207 32 268 1.0 2.0 0.00 0.00 0.00 84 1016.8
20260506100705 32 252 0.0 2.0 0.00 0.00 0.00 84 1017.0
20260506100203 32 224 0.0 2.0 0.00 0.00 0.00 84 1016.9
20260506095701 32 226 0.0 2.0 0.00 0.00 0.00 84 1017.2
20260506095158 32 220 0.0 3.0 0.00 0.00 0.00 83 1017.0
20260506094655 32 273 1.0 3.0 0.00 0.00 0.00 83 1016.9
20260506094153 32 224 0.0 2.0 0.00 0.00 0.00 82 1017.0
20260506093651 32 248 1.0 3.0 0.00 0.00 0.00 81 1017.0
20260506093148 32 258 0.0 3.0 0.00 0.00 0.00 81 1017.1
20260506092646 32 220 0.0 1.0 0.00 0.00 0.00 81 1016.9
20260506092143 31 321 0.0 3.0 0.00 0.00 0.00 82 1017.3
20260506091640 31 226 0.0 1.0 0.00 0.00 0.00 83 1017.1
20260506091137 32 228 0.0 1.0 0.00 0.00 0.00 83 1016.9